[[{"header":{"parameterUnit":"m.s-1","parameterCategory":1,"la1":30.2991,"la2":30.254,"lo1":-89.0895,"lo2":-89.0444,"dy":0.0017,"dx":0.0017,"nx":28,"ny":28,"refTime":"2024-08-12T03:00:00:Z","depth":0,"parameterNumber":2,"parameterNumberName":"U-component_of_WINDS"},"data":[0,0,0,0,0,0,0,0,0,0,0,0,0,0,0,0,0,0,0,0,0,0,0,0,0,0,0,0,0,0,0,0,0,0,0,0,0,0,0,0,0,0,0,0,0,0,0,0,0,0,0,0,0,0,0,0,0,0,0.513,0.5132,0,0.5273,0.5274,0.5276,0.5357,0.5358,0.5358,0.5358,0.5508,0.5511,0.5515,0,0,0,0,0,0,0,0,0,0,0,0,0,0.493,0.4933,0.513,0.5132,0.5134,0.5273,0.5275,0.5276,0.5357,0.5358,0.5358,0.5358,0.5506,0.5511,0.5515,0,0,0,0,0,0,0,0,0,0,0,0,0,0.5039,0.4934,0.513,0.5191,0.5198,0.5272,0.5275,0.5277,0.5357,0.5358,0.5358,0.5358,0.5505,0.551,0.5516,0.5542,0,0,0.5533,0.5535,0,0,0,0,0,0,0,0,0.5033,0.5046,0.518,0.5187,0.5195,0.5298,0.5259,0.5366,0.5357,0.5297,0.5358,0.5359,0.5438,0.5449,0.5475,0.5549,0.5555,0.5533,0.5537,0.5539,0.5541,0,0,0,0,0,0,0,0.5025,0.5041,0.5187,0.5182,0.5191,0.5212,0.5228,0.5279,0.5363,0.5302,0.5308,0.5324,0.5442,0.5469,0.5479,0.5557,0.5533,0.5538,0.5542,0.5544,0.5658,0.5658,0,0,0,0,0,0,0.5008,0.5034,0.5182,0.5191,0.5113,0.5215,0.5233,0.5264,0.5363,0.5378,0.5323,0.5327,0.5459,0.5472,0.5484,0.552,0.5539,0.5544,0.5547,0.5659,0.5658,0.5658,0,0,0,0,0,0,0.5003,0.502,0.5177,0.5114,0.5136,0.5218,0.5253,0.5267,0.5294,0.5379,0.5394,0.5336,0.546,0.5476,0.5526,0.5526,0.5547,0.5552,0.5659,0.5659,0.5658,0.5592,0,0,0,0,0,0,0.4997,0.5018,0.5028,0.5114,0.5139,0.5215,0.5253,0.5269,0.5303,0.531,0.5395,0.5409,0.5462,0.5517,0.5532,0.5534,0.5556,0.5659,0.5659,0.5658,0.5595,0.559,0.5585,0,0,0,0,0,0.4989,0.5005,0.5028,0.5046,0.5153,0.5215,0.523,0.5289,0.5303,0.5314,0.5368,0.5407,0.5524,0.5522,0.5539,0.5543,0.566,0.5659,0.5658,0.5597,0.5591,0.5585,0,0,0,0,0,0,0.4919,0.5018,0.5044,0.5088,0.5142,0.5229,0.5245,0.528,0.5333,0.5336,0.5409,0.5427,0.547,0.5512,0.5508,0.5573,0.5596,0.5599,0.5543,0.5538,0.5533,0.5522,0.5561,0,0,0,0,0,0.4908,0.495,0.5034,0.5064,0.509,0.5162,0.5192,0.5232,0.5292,0.5316,0.5374,0.5431,0.548,0.5512,0.5562,0.5601,0.562,0.5612,0.5607,0.5603,0.5605,0.5627,0.5624,0.5656,0.5656,0.5656,0,0,0.4887,0.4946,0.4968,0.5052,0.5099,0.514,0.5181,0.5224,0.5255,0.5323,0.5372,0.5416,0.5485,0.5529,0.5551,0.5565,0.56,0.5602,0.5598,0.5602,0.5626,0.5622,0.562,0.5655,0.5655,0.5655,0,0,0.487,0.4919,0.4949,0.4994,0.5064,0.5112,0.5118,0.5199,0.523,0.5281,0.5332,0.5371,0.5455,0.5502,0.5536,0.5533,0.557,0.5548,0.5523,0.5544,0.5541,0.5539,0.5537,0.5536,0.5549,0.5549,0.5549,0,0.4835,0.4899,0.496,0.4999,0.5034,0.5095,0.5125,0.5167,0.525,0.5273,0.5287,0.5393,0.5443,0.5498,0.5497,0.5523,0.5533,0.5539,0.5536,0.5535,0.5534,0.5533,0.5532,0.5546,0.5546,0.5547,0.5547,0,0.4852,0.4895,0.4911,0.4988,0.5024,0.5059,0.5126,0.5156,0.5192,0.5238,0.5289,0.5351,0.5414,0.5431,0.5468,0.549,0.5496,0.5522,0.5547,0.5527,0.5527,0.5527,0.5541,0.5542,0.5543,0.5544,0,0,0.4795,0.4904,0.4908,0.4943,0.5024,0.5058,0.5095,0.5156,0.518,0.5235,0.5267,0.5336,0.536,0.5399,0.5442,0.546,0.5452,0.5484,0.5487,0.5475,0.5479,0.5458,0.5457,0.5477,0.5477,0.5477,0.5473,0,0.4789,0.4857,0.4912,0.496,0.5,0.5058,0.509,0.5143,0.5186,0.5227,0.5276,0.5323,0.5352,0.5375,0.5396,0.5448,0.5454,0.545,0.5508,0.5509,0.5488,0.5457,0.5436,0.5429,0.5473,0.5474,0.5474,0,0.4791,0.4841,0.4892,0.4967,0.4986,0.5013,0.5072,0.5111,0.5171,0.5202,0.5244,0.5288,0.5329,0.535,0.5408,0.5404,0.5431,0.546,0.5461,0.5469,0.549,0.5463,0.5428,0.5426,0.5475,0.5474,0.5474,0,0.4742,0.4823,0.4864,0.4892,0.4981,0.4998,0.5036,0.5097,0.513,0.5181,0.5203,0.5259,0.529,0.5333,0.5391,0.54,0.5442,0.5468,0.5468,0.5467,0.5475,0.5473,0.5442,0.5493,0.5493,0.5493,0.5493,0,0.4729,0.4758,0.4843,0.4868,0.4902,0.4965,0.4997,0.504,0.5093,0.5128,0.5182,0.5213,0.5288,0.5328,0.5373,0.5414,0.5428,0.5453,0.5465,0.5448,0.5444,0.5466,0.5468,0.5492,0.5493,0.5493,0.5493,0,0.4681,0.474,0.4787,0.4866,0.4887,0.4908,0.4976,0.5002,0.5048,0.5091,0.5104,0.5177,0.5226,0.5288,0.5359,0.5389,0.5424,0.5443,0.5403,0.541,0.5406,0.5405,0.5388,0.5389,0.5439,0.5438,0.5438,0,0.4668,0.4691,0.4772,0.4798,0.4834,0.4876,0.4908,0.4971,0.5003,0.5072,0.509,0.5143,0.519,0.5266,0.5326,0.5379,0.5399,0.5389,0.5407,0.5389,0.5397,0.5395,0.5397,0.5384,0.5383,0.5383,0.5382,0,0.4639,0.4666,0.4711,0.4764,0.4801,0.4847,0.4895,0.4913,0.4986,0.5019,0.507,0.5105,0.5175,0.5228,0.5288,0.5328,0.5367,0.5376,0.5378,0.5361,0.5337,0.5348,0.5389,0.5376,0.5377,0.5377,0.5377,0.5378,0.4608,0.463,0.469,0.4737,0.4779,0.4823,0.485,0.4899,0.4942,0.5003,0.5038,0.5087,0.5146,0.5231,0.5269,0.5309,0.5323,0.5327,0.5328,0.5328,0.5322,0.533,0.532,0.532,0.5321,0.5321,0.5321,0,0.458,0.4621,0.4664,0.4728,0.4765,0.4797,0.4851,0.488,0.4922,0.4973,0.5017,0.5074,0.5124,0.5187,0.5241,0.5261,0.528,0.5273,0.5272,0.528,0.5307,0.5298,0.5256,0.5256,0.5256,0.5256,0.5256,0.5256,0.457,0.4609,0.4643,0.4704,0.4745,0.4792,0.482,0.486,0.4901,0.4962,0.5004,0.5043,0.5099,0.5158,0.5205,0.5222,0.5239,0.5226,0.5249,0.5273,0.5278,0.5284,0.5276,0.523,0.523,0.5218,0.5218,0.5218]},{"header":{"parameterUnit":"m.s-1","parameterCategory":1,"la1":30.2991,"la2":30.254,"lo1":-89.0895,"lo2":-89.0444,"dy":0.0017,"dx":0.0017,"nx":28,"ny":28,"refTime":"2024-08-12T03:00:00:Z","depth":0,"parameterNumber":3,"parameterNumberName":"V-component_of_WINDS"},"data":[0,0,0,0,0,0,0,0,0,0,0,0,0,0,0,0,0,0,0,0,0,0,0,0,0,0,0,0,0,0,0,0,0,0,0,0,0,0,0,0,0,0,0,0,0,0,0,0,0,0,0,0,0,0,0,0,0,0,3.5755,3.5755,0,3.5738,3.5738,3.5738,3.5717,3.5716,3.5716,3.5716,3.5696,3.5696,3.5695,0,0,0,0,0,0,0,0,0,0,0,0,0,3.5767,3.5767,3.5755,3.5755,3.5755,3.5738,3.5738,3.5738,3.5717,3.5716,3.5716,3.5716,3.5696,3.5696,3.5695,0,0,0,0,0,0,0,0,0,0,0,0,0,3.5757,3.5767,3.5755,3.5743,3.5741,3.5738,3.5738,3.5737,3.5717,3.5716,3.5716,3.5716,3.5696,3.5696,3.5695,3.5703,0,0,3.5694,3.5694,0,0,0,0,0,0,0,0,3.5757,3.5756,3.5745,3.5744,3.5742,3.5729,3.5734,3.5726,3.5717,3.5726,3.5716,3.5715,3.5707,3.5706,3.5704,3.5702,3.5701,3.5694,3.5694,3.5694,3.5694,0,0,0,0,0,0,0,3.5758,3.5757,3.5748,3.5745,3.5743,3.5736,3.5734,3.5733,3.5719,3.5725,3.5724,3.5722,3.5706,3.5704,3.5703,3.5701,3.5694,3.5694,3.5694,3.5694,3.57,3.57,0,0,0,0,0,0,3.5761,3.5758,3.5749,3.5748,3.5749,3.5737,3.5734,3.5734,3.5719,3.5717,3.5723,3.5721,3.5705,3.5703,3.5702,3.5708,3.5694,3.5694,3.5693,3.57,3.57,3.5701,0,0,0,0,0,0,3.5761,3.5761,3.575,3.5752,3.575,3.5737,3.5736,3.5734,3.5731,3.5717,3.5715,3.5723,3.5704,3.5703,3.5702,3.5707,3.5693,3.5693,3.5699,3.57,3.57,3.572,0,0,0,0,0,0,3.5762,3.5761,3.5765,3.5753,3.575,3.5751,3.5737,3.5734,3.5731,3.5729,3.5717,3.5714,3.5704,3.5703,3.5702,3.5706,3.5693,3.5699,3.57,3.57,3.5719,3.5721,3.5723,0,0,0,0,0,3.5762,3.5771,3.5765,3.5764,3.5755,3.5752,3.575,3.5739,3.5732,3.5734,3.5725,3.5715,3.5706,3.5703,3.5702,3.5706,3.5698,3.5699,3.57,3.5718,3.5721,3.5723,0,0,0,0,0,0,3.5784,3.5769,3.5762,3.5768,3.5761,3.5748,3.5751,3.5742,3.5737,3.5736,3.5721,3.5718,3.5718,3.5712,3.5708,3.571,3.5701,3.5701,3.5715,3.5717,3.5719,3.572,3.5692,0,0,0,0,0,3.5789,3.5788,3.5775,3.5781,3.5778,3.5765,3.5763,3.5755,3.5747,3.5744,3.5735,3.5727,3.5722,3.5719,3.5714,3.5718,3.5713,3.572,3.5722,3.5724,3.5724,3.5723,3.5724,3.5703,3.5703,3.5703,0,0,3.58,3.5792,3.5793,3.5785,3.5779,3.5777,3.5763,3.5763,3.576,3.5744,3.5742,3.5735,3.5725,3.5725,3.5725,3.572,3.5729,3.5725,3.5726,3.5726,3.5724,3.5726,3.5727,3.5704,3.5704,3.5704,0,0,3.5819,3.5814,3.5816,3.581,3.5801,3.5792,3.5793,3.5781,3.5775,3.5774,3.576,3.5757,3.575,3.5742,3.5738,3.5751,3.574,3.5749,3.576,3.5759,3.5761,3.5762,3.5765,3.5766,3.575,3.575,3.575,0,3.5833,3.5831,3.5819,3.5818,3.5814,3.5799,3.5801,3.5795,3.5785,3.5782,3.5776,3.5765,3.5757,3.5755,3.5758,3.5755,3.5754,3.5751,3.5762,3.5763,3.5764,3.5766,3.5768,3.5751,3.5751,3.5751,3.5751,0,3.5848,3.5847,3.585,3.584,3.5836,3.5837,3.5823,3.5821,3.5812,3.5803,3.58,3.579,3.5782,3.578,3.5772,3.5776,3.5773,3.5765,3.5755,3.5767,3.5769,3.577,3.5753,3.5752,3.5752,3.5752,0,0,3.588,3.5863,3.5864,3.5858,3.5846,3.5843,3.5842,3.5834,3.5831,3.5824,3.5821,3.5815,3.5806,3.5801,3.5791,3.579,3.5799,3.5782,3.5781,3.5784,3.5799,3.5805,3.5806,3.5792,3.5792,3.5792,3.58,0,3.5895,3.5894,3.5882,3.5882,3.5879,3.5864,3.5862,3.5854,3.5845,3.584,3.5829,3.5824,3.5815,3.5811,3.5809,3.5798,3.5801,3.5797,3.5787,3.5787,3.579,3.5808,3.5814,3.5822,3.5801,3.5801,3.5801,0,3.5913,3.5907,3.5907,3.5893,3.5891,3.589,3.588,3.5877,3.5865,3.5859,3.5852,3.5841,3.5836,3.5827,3.582,3.5818,3.5813,3.5806,3.5806,3.5804,3.5794,3.5805,3.5824,3.5825,3.5802,3.5802,3.5802,0,3.5934,3.5925,3.5924,3.592,3.5904,3.5903,3.5896,3.5884,3.5879,3.5871,3.5867,3.5858,3.5852,3.5845,3.583,3.5826,3.5824,3.5814,3.5817,3.5817,3.5817,3.5817,3.5834,3.5815,3.5815,3.5815,3.5815,0,3.5952,3.5952,3.5933,3.5932,3.5931,3.5917,3.5916,3.5907,3.5897,3.5892,3.5878,3.5874,3.5856,3.5849,3.5838,3.5833,3.5831,3.5824,3.5821,3.5825,3.5825,3.5821,3.5819,3.5816,3.5816,3.5815,3.5815,0,3.5975,3.5962,3.5959,3.5944,3.594,3.594,3.5926,3.5923,3.5913,3.5907,3.5905,3.5889,3.588,3.5865,3.5852,3.5844,3.584,3.5836,3.5844,3.5842,3.5845,3.5844,3.5859,3.586,3.5841,3.5842,3.5842,0,3.5986,3.5986,3.597,3.5966,3.596,3.5955,3.5949,3.5934,3.5929,3.5915,3.5914,3.5904,3.5895,3.5882,3.5868,3.5857,3.5851,3.5857,3.5849,3.5852,3.5849,3.5849,3.5848,3.5859,3.5859,3.5859,3.5859,0,3.6007,3.6,3.5994,3.5985,3.5979,3.5971,3.5962,3.5959,3.5942,3.5936,3.5928,3.5921,3.5907,3.5897,3.5884,3.5875,3.5863,3.5862,3.5861,3.5865,3.5869,3.5865,3.5848,3.5861,3.5861,3.5861,3.5861,3.5861,3.6023,3.6021,3.601,3.6002,3.5994,3.5985,3.5982,3.5971,3.5963,3.5951,3.5943,3.5934,3.592,3.5902,3.5893,3.5885,3.588,3.588,3.588,3.588,3.588,3.5871,3.5882,3.5882,3.5882,3.5882,3.5882,0,3.6041,3.6033,3.6026,3.6014,3.6008,3.5999,3.5988,3.5983,3.5975,3.5964,3.5956,3.5944,3.5933,3.5918,3.5906,3.5902,3.5896,3.5899,3.5899,3.5897,3.5886,3.5887,3.5904,3.5904,3.5904,3.5904,3.5904,3.5904,3.605,3.6046,3.6038,3.6029,3.602,3.6012,3.6006,3.5997,3.5988,3.5976,3.5968,3.5958,3.5944,3.5931,3.592,3.5916,3.5911,3.5915,3.5909,3.59,3.5898,3.5896,3.5896,3.5915,3.5915,3.592,3.592,3.592]}]]